STARLINK-5938, 55960

Orbit data source: Space-Track

STARLINK-5938, 55960 is a payload satellite owned by SpaceX/Seattle (US) in LEO that was launched on Fri, 17 Mar 2023 UTC via an FALCON 9 launch vehicle from the Air Force Western Test Range (AFWTR). Payload-class satellites include a variety of spacecraft equipped with specific instruments for various scientific and technological missions. These include communications satellites like Starlink; space stations such as the ISS; scientific satellites like the Hubble; Earth observation satellites from companies like Planet Labs, Umbra, and HawkEye 360; GPS; miniature CubeSats for education and research; and military/defense satellites.

Loading next visibility...
Identifier
55960, 2023-037AY
Orbit
LEO
Country
Flag of USUS
Related business
Manufacturer
SpaceX/Seattle
Mission
Operational Commercial Communications
Bus & Motor
STARLINK, Unknown motor
Mass
305 kg wet, ~290 kg dry
Launch date (UTC)
2023-03-17 (3 years ago)
Launch vehicle
FALCON 9
Launch site
Air Force Western Test Range (AFWTR)
Object type
Payload
Rocket body
Debris
Shape & HBR
Box + 1 Pan, 10.1 m
Radar Cross Section
11.087 m², Large (>1 m²)

Expand to show TLE details & history
Last TLE update: 3 days ago

TLE from 3 days ago
0 STARLINK-5938
1 55960U 23037AY  26170.91286022  .00000054  00000-0  12332-4 0  9990
2 55960  70.0002   6.7627 0002981 264.0433  96.0387 14.98333868179784
Epoch: 2026-06-19T21:54Z
TLE epoch observation values (Epoch: 2026-06-19T21:54:31.123Z)
Latitude
0.00001°
Longitude
129.998°
Altitude
574.686 km
Speed
7.574 km/s
True Right ascension
00h 27m 03s
True Declination
0° 00' 00"
Sunlit
Object was in daylight at epoch
Visualization orbit readout
Latitude
Unknown
Longitude
Unknown
Altitude
Unknown
Speed
Unknown
Apparent Right ascension
Unknown
Apparent Declination
Unknown
Sunlit
N/A
Visualization observer readout
Local Sidereal Time
21:41:37
Azimuth
Unknown
Elevation
Unknown
Doppler factor
Unknown
Orbital elements
Apogee altitude
572.063 km
Perigee altitude
567.921 km
Semi-major axis
6,948.129 km
Eccentricity
0.0003
Inclination
70.0002°
RAAN
6.7627°
Arg. of periapsis
264.0433°
True anomaly
96.07267°
Mean anomaly
96.0387°
Eccentric anomaly
96.05568°
Mean motion
3.7475 °/min
Orbital period
96.06 mins
BSTAR
0.000012332
Loading maneuver chart data...
Computing Atmospheric mass density...
Loading historical data...
Loading historical data...
Loading historical data...
Loading historical data...
Loading historical data...
Loading historical data...
Loading historical data...

Documentation

Showing up to 5 results
|